{"data":{"norad_id":45453,"intl_designator":"2020-020AF","name":"ONEWEB-0050","alt_names":[],"object_type":"PAYLOAD","status":"ACTIVE","operator":null,"country":"UK","launch_date":"2020-03-21","launch_site_code":"TYMSC","launch_vehicle":null,"mission":null,"orbit_class":"UNKNOWN","rcs_meters":null,"size_class":null,"mass_kg":null,"dimensions":null,"purposes":["comms"],"wikipedia_slug":null,"has_3d_model":false,"image_url":null,"decayed_at":null,"tle_current":{"epoch":"2026-09-19T16:05:40.301376Z","epoch_age_seconds":86016,"freshness":"FRESH","line1":"1 45453U 20020AF  26262.67060534  .00001389  00000+0  13969-3 0  9995","line2":"2 45453  88.9337 220.3791 0004290  32.3945 327.7546 14.90630968354457","mean_motion":14.90630968,"eccentricity":0.000429,"inclination_deg":88.9337,"raan_deg":220.3791,"arg_perigee_deg":32.3945,"mean_anomaly_deg":327.7546,"bstar":0.00013969,"rev_number":35445,"period_min":96.603386814918,"perigee_km":592.97503826584,"apogee_km":598.9588194368,"semimajor_km":6974.1039288513,"source":"CELESTRAK","updated_at":"2026-09-20T09:00:44.558400Z"}}}